Location: Unspecified
(35.6961°N, 0.0000°E)
Time: 03:24:46
(UTC+00:00)

Hubble Space Telescope - Visible Passes

Search period start: 16 June 2019 00:00
Search period end: 26 June 2019 00:00
Orbit: 536 x 540 km, 28.5° (Epoch: 15 June)

Date Brightness Start Highest point End Pass type
(mag) Time Alt. Az. Time Alt. Az. Time Alt. Az.
16 Jun 2.5 02:30:34 20° SE 02:30:34 20° SE 02:32:27 10° ESE visible
16 Jun 1.8 04:06:11 10° WSW 04:09:46 29° S 04:13:20 10° ESE visible
17 Jun 2.8 02:20:36 17° SE 02:20:36 17° SE 02:21:56 10° ESE visible
17 Jun 1.9 03:55:56 11° WSW 03:59:11 27° S 04:02:41 10° SE visible
18 Jun 3.1 02:10:44 14° ESE 02:10:44 14° ESE 02:11:24 10° ESE visible
18 Jun 1.9 03:46:05 15° WSW 03:48:35 25° S 03:52:01 10° SE visible
19 Jun 2.0 03:36:23 18° SW 03:37:59 23° SSW 03:41:16 10° SE visible
20 Jun 2.1 03:26:51 20° SSW 03:27:22 21° SSW 03:30:29 10° SE visible
21 Jun 2.4 03:17:33 17° S 03:17:33 17° S 03:19:37 10° SSE visible
22 Jun 3.1 03:08:30 10° SSE 03:08:30 10° SSE 03:08:38 10° SSE visible
25 Jun 2.8 21:18:12 10° SW 21:19:24 16° SSW 21:19:24 16° SSW visible
